Wind_Speed
65 65 67 69 71 72 71 73 77 84 89 89 88 87 85 83 78 73 68 61 56 52 48 44 40 36 32 30 29 28 27 26 26 27 29 30 31 33 33 33 33 33 33 33 34 35 38 42 47 52 57 64 70 74 79 87 93 96 98 101 102 99 97 98 101 101 99 101 106 106 102 99 97 96 95 94 92 90 89 87 86 85 84 82 81 79 77 77
65 66 68 70 72 72 72 74 79 85 90 90 88 87 85 82 77 72 66 60 55 51 47 43 39 35 32 30 29 27 27 27 27 28 30 31 33 33 33 32 32 31 31 31 31 32 33 35 39 43 49 55 62 69 74 79 86 94 97 98 101 104 103 101 100 101 101 100 103 106 103 100 99 99 98 96 94 93 92 90 89 88 87 85 84 82 80 79
66 67 69 71 72 72 72 76 80 87 91 90 89 87 85 81 76 71 65 59 54 50 46 42 39 35 32 30 29 28 27 27 28 29 31 32 33 33 32 32 31 32 31 31 31 30 30 31 33 36 40 45 52 60 67 73 78 86 93 97 99 102 106 106 103 101 101 100 101 104 104 101 100 101 99 97 96 95 94 93 92 91 90 89 87 86 83 82
66 68 70 72 73 72 73 77 81 88 92 90 89 87 84 80 75 70 64 58 53 49 45 42 38 34 32 31 29 28 28 28 29 31 32 33 33 33 32 33 33 33 32 32 31 31 31 31 32 34 35 38 42 49 56 64 71 76 84 92 98 100 102 106 108 105 103 102 101 102 104 103 101 101 100 99 98 96 95 95 96 95 94 92 90 89 87 86
67 69 71 73 73 73 75 78 82 89 92 90 88 86 83 78 73 68 63 57 52 48 44 40 37 34 33 31 30 29 29 30 31 32 34 34 34 34 34 34 35 35 35 34 34 34 34 35 36 36 37 38 39 42 47 54 61 68 74 82 91 99 101 103 107 108 106 105 103 103 104 105 103 100 100 100 99 98 98 99 98 97 96 95 93 92 90 89
68 70 72 73 73 73 76 79 84 90 91 89 88 85 82 77 72 66 61 56 51 47 43 39 35 33 33 32 30 29 30 31 33 34 36 36 36 36 36 36 37 38 38 38 38 38 38 39 40 41 42 42 42 44 45 48 53 59 66 74 81 90 98 102 105 107 108 107 107 106 106 106 105 101 99 100 100 101 101 101 100 98 96 95 94 93 92 90
68 71 73 73 73 74 77 80 85 90 90 89 87 84 80 75 70 65 60 55 50 45 41 38 34 33 33 32 31 30 31 32 34 36 37 37 38 38 39 39 40 41 41 42 43 43 43 44 44 45 47 47 48 49 49 49 51 53 59 67 74 81 90 98 103 105 107 107 107 109 109 108 106 103 100 99 100 102 102 102 100 99 97 95 93 93 92 91
69 71 72 73 73 75 78 81 87 90 90 88 86 83 79 73 68 63 58 53 48 44 40 36 34 33 32 31 31 31 32 34 36 37 38 39 40 40 41 42 43 43 44 45 46 47 48 48 49 49 51 53 54 54 54 53 54 54 56 61 68 74 81 90 98 103 106 106 107 108 110 112 110 106 101 99 99 101 102 102 101 100 99 96 94 93 92 91
70 71 72 72 73 76 79 82 88 90 89 87 85 82 77 72 67 62 57 52 46 42 38 35 34 33 32 31 31 32 33 35 37 39 40 41 42 42 43 45 45 46 46 47 47 49 50 51 52 52 54 57 59 60 61 60 60 59 59 60 63 69 75 82 90 98 104 106 106 106 107 112 115 112 105 101 100 100 102 102 102 101 100 98 97 96 94 92
70 71 72 72 74 77 79 84 89 90 89 87 84 80 76 70 65 60 55 50 44 39 36 35 34 33 32 32 32 33 35 36 38 40 42 43 44 45 46 47 48 48 48 48 48 49 50 51 52 54 57 60 62 65 67 67 68 65 63 62 63 66 70 76 82 90 98 104 106 106 106 108 114 116 110 106 103 101 101 102 102 102 101 100 99 97 96 94
69 70 72 73 75 77 81 86 90 90 88 86 83 79 73 68 63 59 54 48 43 38 36 35 34 33 32 32 32 34 36 38 40 42 44 45 47 48 49 50 50 50 49 49 48 48 49 51 54 57 61 64 65 67 69 72 73 71 68 66 66 68 68 71 76 82 90 98 103 106 106 107 111 112 111 112 109 105 102 101 102 102 101 101 100 99 97 95
69 71 72 73 75 78 82 88 90 89 87 85 81 77 72 66 62 57 52 46 41 37 36 35 34 33 32 32 33 35 38 39 41 43 45 47 49 50 51 52 52 52 51 50 49 49 51 54 57 61 63 66 67 69 70 72 75 75 73 70 70 70 69 70 73 77 83 89 97 104 107 107 107 106 107 112 114 110 106 102 102 102 102 101 99 98 97 95
70 72 72 73 75 79 84 88 89 88 87 84 80 75 70 65 60 56 50 45 41 38 36 35 34 33 32 32 34 36 39 41 43 45 47 49 51 52 53 54 54 53 52 52 51 52 55 59 62 64 66 68 69 69 70 71 73 75 76 74 73 73 72 72 73 75 78 82 90 100 103 103 104 104 105 109 112 113 110 106 104 103 104 103 100 97 95 95
71 72 72 73 76 81 86 88 88 88 85 82 78 73 68 63 59 54 49 44 41 38 36 35 34 33 33 34 36 38 40 42 44 47 49 51 52 53 55 56 55 54 53 52 54 56 59 62 64 66 68 69 69 69 70 70 71 74 76 76 76 76 75 76 76 75 76 79 86 95 96 96 102 105 105 106 108 111 111 109 107 105 106 106 103 99 96 94
71 72 72 73 77 82 86 88 88 86 84 81 76 71 66 62 57 52 48 44 41 38 36 35 34 33 34 35 37 39 42 44 46 48 50 52 53 55 56 57 56 55 54 54 56 59 62 63 64 66 67 68 68 68 68 69 69 72 75 77 78 77 77 79 79 76 76 78 84 90 89 91 99 104 104 104 105 107 108 109 108 107 107 107 104 101 98 95
71 72 72 74 78 83 86 87 87 85 83 79 75 69 65 60 56 51 47 44 41 38 36 35 34 34 34 36 38 40 43 46 48 50 52 54 55 56 57 56 56 55 55 56 58 60 62 63 63 64 64 65 65 65 65 66 66 68 71 76 78 78 78 80 80 80 79 79 82 84 83 87 95 100 103 104 103 103 104 106 106 105 106 108 106 102 98 97
71 72 73 75 80 84 86 86 85 84 81 78 73 68 64 60 55 51 47 43 40 38 36 35 34 34 35 37 39 42 45 47 49 51 53 55 56 56 56 55 54 55 56 56 58 59 61 62 62 62 61 61 62 61 62 63 63 64 66 71 75 76 78 80 82 82 81 81 82 81 82 86 92 96 101 103 102 101 101 102 103 103 102 103 105 105 101 98
71 72 73 76 81 84 85 85 84 83 80 76 71 67 62 58 54 50 45 42 39 37 36 35 34 35 36 39 41 44 46 48 50 52 54 56 57 56 55 54 53 54 57 58 58 59 59 59 57 58 57 55 56 56 57 58 58 60 61 65 70 72 74 78 82 83 83 83 82 82 83 85 90 94 98 100 101 100 98 98 99 101 100 99 100 102 102 100
71 72 74 78 81 84 84 83 82 81 79 75 70 66 61 57 53 48 44 40 38 36 35 35 35 36 37 40 43 45 47 49 52 53 55 57 58 57 55 54 54 55 58 59 59 59 57 54 51 50 50 48 48 49 50 50 51 54 56 59 64 67 69 73 78 80 81 82 82 83 84 85 90 93 95 98 99 98 97 96 96 97 97 96 96 96 98 97
71 73 75 78 81 83 83 81 80 80 77 73 68 64 59 54 50 46 43 40 37 36 35 35 35 37 39 41 44 46 48 51 53 55 56 58 58 57 55 55 56 57 59 59 58 56 52 49 44 42 43 42 42 43 43 43 45 47 50 53 57 62 65 66 71 75 76 78 80 83 85 86 89 91 93 96 97 96 96 94 92 93 93 92 92 92 93 93
71 73 76 79 81 82 81 79 79 78 75 71 66 61 56 51 47 44 42 39 37 36 36 36 36 38 40 42 45 47 49 51 54 56 57 58 59 58 56 56 58 59 60 59 56 52 47 44 41 38 38 38 37 38 39 39 40 41 43 46 50 55 60 61 64 69 72 73 76 81 84 86 87 90 92 94 94 93 93 92 89 89 88 87 88 88 89 90
72 74 76 79 81 81 78 76 77 76 73 69 64 59 53 49 46 43 41 39 37 36 36 36 37 39 41 43 46 48 50 52 54 57 58 59 59 58 58 58 59 61 60 58 53 48 44 42 39 35 33 34 34 34 36 36 36 37 39 41 44 48 54 56 57 62 66 68 72 78 82 85 87 90 91 91 90 89 91 90 88 87 85 83 84 84 84 85
73 74 76 78 80 78 75 74 75 74 71 67 62 56 50 47 45 43 41 38 37 36 36 36 37 39 42 45 47 49 52 54 56 57 59 60 60 59 60 61 62 61 59 56 51 46 41 38 36 32 30 31 31 31 32 34 34 35 35 37 39 43 49 52 52 56 60 63 69 75 79 83 86 89 90 89 88 88 90 89 87 87 85 82 81 80 80 80
73 74 76 78 78 75 72 73 73 72 69 64 59 53 48 46 44 42 40 38 36 36 36 36 37 40 43 45 47 49 52 54 57 58 60 61 61 61 62 64 64 62 58 54 50 45 40 36 34 31 29 28 29 28 29 31 32 33 33 35 36 39 44 47 47 51 54 58 65 71 76 80 83 85 88 88 88 88 89 87 86 86 84 83 81 78 78 77
72 74 76 77 75 71 70 71 71 70 67 61 55 50 47 45 45 43 41 38 36 35 36 36 38 41 43 45 47 50 52 54 57 59 61 62 62 62 64 65 65 63 58 53 49 46 43 39 36 32 29 27 27 27 27 29 30 31 32 33 34 35 39 43 44 46 50 54 60 67 72 76 80 83 86 88 88 88 88 85 84 84 83 82 79 77 75 74
71 74 75 74 71 68 68 69 68 67 64 58 53 49 47 46 45 43 41 38 36 35 35 36 38 41 43 45 48 50 52 54 57 60 62 62 62 63 65 65 65 62 58 53 49 47 44 42 38 34 31 28 26 26 25 26 27 28 29 30 32 33 36 39 41 43 46 49 54 61 67 74 79 82 85 88 88 87 87 85 83 82 81 80 78 76 74 71
71 73 73 71 67 65 66 66 66 65 61 55 51 49 48 48 46 44 41 38 36 35 35 36 38 40 43 45 48 49 52 54 57 60 62 63 63 64 65 66 64 60 57 53 50 47 44 41 37 33 30 28 26 25 24 25 25 25 26 27 28 29 32 35 38 40 42 45 48 54 63 72 76 79 84 87 87 88 87 85 82 80 79 78 77 75 72 69
71 72 70 67 64 62 64 64 63 62 58 53 50 49 49 47 46 44 40 37 36 35 34 35 38 41 44 45 47 49 52 54 58 61 63 64 64 65 66 65 62 58 55 52 49 47 43 40 36 32 28 26 25 24 23 23 22 22 23 24 24 25 27 30 34 36 38 41 44 49 58 67 71 76 83 86 87 87 86 83 80 78 77 77 76 74 71 68
71 69 66 63 60 60 62 62 61 59 54 50 49 49 48 46 46 45 41 36 35 34 34 36 38 41 43 45 47 50 52 54 57 62 64 65 65 65 65 64 60 56 53 51 49 46 44 39 35 31 28 25 24 23 22 21 21 20 20 20 21 21 22 24 28 32 36 39 42 46 53 62 70 75 80 83 84 84 82 81 79 78 78 77 75 73 70 67
68 65 62 60 58 58 60 60 59 56 51 48 47 47 47 46 46 45 41 36 35 34 34 35 38 41 42 44 47 50 52 55 57 61 64 65 65 65 65 63 59 55 51 49 47 45 43 39 35 31 27 24 23 22 21 20 19 18 17 17 17 18 18 20 23 27 33 37 40 43 49 58 68 73 77 79 80 80 80 80 78 78 77 76 74 71 68 66
65 62 60 57 56 56 58 57 56 54 49 45 44 45 47 47 45 44 41 36 34 33 33 35 37 40 42 44 46 49 51 54 56 60 64 65 66 65 64 62 60 57 54 50 47 44 41 37 33 29 25 23 22 21 19 18 17 16 15 15 15 15 16 17 20 24 29 34 38 41 46 53 63 70 75 77 79 80 81 79 77 76 75 74 72 69 67 66
62 59 57 55 54 55 56 55 54 52 48 45 44 44 45 47 45 43 40 35 34 33 33 34 36 39 41 44 46 48 51 53 55 59 63 65 65 65 63 60 57 55 53 50 48 45 40 36 32 28 25 22 21 20 18 16 15 15 14 14 13 14 15 16 18 22 27 32 36 39 43 50 58 68 74 78 79 80 80 78 77 76 75 73 71 68 67 66
60 57 55 53 53 53 54 53 52 50 47 45 43 42 44 45 44 42 39 34 33 32 32 34 35 37 40 43 46 47 50 52 53 57 62 64 65 64 62 58 54 50 47 45 44 42 40 37 33 29 25 22 20 19 17 16 14 13 12 12 12 12 13 15 17 20 25 30 34 37 41 46 54 64 73 78 79 79 79 78 77 75 74 72 70 69 69 67
58 55 53 51 51 51 52 52 50 48 46 44 41 41 43 44 42 41 38 34 32 31 31 32 34 37 39 42 45 47 49 51 52 56 61 63 64 63 60 57 53 49 45 42 39 36 34 32 31 28 25 23 20 18 16 15 13 11 10 10 11 11 12 14 16 20 24 28 33 36 39 43 50 59 69 76 78 77 77 76 75 73 73 71 70 70 69 67
57 54 51 50 49 49 50 51 49 46 45 44 41 40 41 42 41 40 37 33 31 31 31 32 33 36 39 41 44 46 48 50 51 54 59 62 63 62 60 56 51 47 43 41 38 34 30 28 27 25 24 23 21 19 16 14 12 10 9 8 8 9 10 12 15 18 21 26 31 34 37 41 46 55 64 72 76 76 75 73 73 73 72 69 67 67 65 64
55 52 50 48 47 47 48 49 47 45 44 43 41 40 40 39 39 38 36 32 31 30 30 31 32 34 38 41 43 45 47 49 50 53 58 61 62 61 58 54 49 45 42 39 36 33 29 26 24 23 22 22 20 19 17 14 12 10 8 7 6 7 8 10 13 16 19 23 27 32 36 39 44 50 58 67 73 75 74 72 72 72 70 67 66 65 61 59
53 50 48 47 47 45 46 48 46 44 44 42 41 40 39 38 37 36 34 32 30 30 30 30 32 34 37 40 42 45 46 48 49 52 56 59 60 60 57 53 48 44 40 37 34 30 27 24 23 22 21 21 20 19 17 15 13 10 8 5 4 4 6 8 11 14 17 20 25 29 34 38 42 47 53 61 69 72 73 72 71 69 67 66 66 64 60 58
52 49 47 46 46 45 45 47 46 44 43 42 41 39 38 37 36 34 33 32 29 29 30 30 31 33 36 39 41 43 45 46 48 50 54 57 59 59 57 52 47 43 39 36 32 28 25 23 22 22 21 21 20 18 17 16 13 11 8 5 4 2 3 6 9 12 15 19 23 27 31 36 40 45 49 56 63 69 72 70 68 67 66 65 65 62 59 57
51 48 46 46 46 44 45 47 46 44 43 41 40 39 36 36 35 33 32 31 30 29 29 30 30 32 35 38 40 42 44 44 46 49 52 55 58 58 56 51 46 42 38 34 30 26 22 20 19 20 21 21 21 19 18 17 15 13 10 7 4 2 1 4 7 10 13 16 20 25 29 33 37 42 46 51 57 65 68 67 68 69 64 62 61 60 58 56
50 47 45 45 46 45 45 46 46 44 42 40 39 38 36 35 34 32 31 31 30 29 29 29 30 31 33 36 39 41 43 43 45 48 49 53 56 57 55 51 45 40 36 32 29 24 20 18 18 19 21 22 22 21 20 19 18 15 12 9 6 3 1 2 5 8 11 14 18 22 25 29 33 38 43 47 52 58 64 67 70 68 60 58 59 58 57 56
50 47 43 43 45 47 46 46 46 45 42 39 38 37 35 34 34 31 30 31 30 29 29 29 30 31 33 35 37 39 41 42 43 46 48 50 54 56 55 51 45 39 36 31 28 24 20 18 18 19 20 22 23 23 22 22 21 19 16 13 8 5 3 2 3 5 9 12 15 19 22 25 29 34 38 43 48 53 59 66 69 65 60 59 59 57 55 54
47 43 41 42 44 47 47 47 47 46 43 39 38 36 34 33 33 32 30 30 31 30 29 29 30 31 32 34 36 38 40 41 42 45 47 48 52 54 54 52 46 39 35 30 27 24 20 18 17 18 20 22 23 24 24 24 23 21 20 18 14 10 7 6 5 5 6 9 12 16 19 22 25 30 35 40 45 50 56 62 65 63 61 61 59 55 53 53
45 42 40 41 43 45 46 47 48 47 43 39 37 35 34 33 32 32 30 30 30 30 29 29 30 31 32 33 35 36 38 39 40 43 45 46 49 52 53 52 47 40 35 30 27 24 20 17 16 17 20 22 23 23 25 25 25 25 25 22 19 16 12 10 9 7 8 9 11 14 17 20 23 27 31 37 42 47 52 55 56 57 59 60 58 55 53 52
45 43 42 42 43 44 44 48 50 49 44 39 37 36 33 32 32 32 31 30 30 30 29 29 29 30 30 31 33 35 37 38 38 40 44 45 46 49 52 51 48 41 35 31 28 24 19 15 14 17 21 22 23 24 25 26 26 28 29 26 23 21 17 15 13 11 11 11 12 13 16 19 22 25 29 33 37 42 45 46 48 53 57 58 57 54 52 51
45 43 43 43 45 45 45 47 49 51 48 41 37 36 34 32 32 31 31 30 30 31 30 29 29 29 28 29 31 33 35 37 37 38 41 44 44 46 49 51 49 43 36 31 28 25 19 14 12 17 21 22 22 23 25 27 28 29 31 29 27 26 23 21 19 17 15 14 14 15 16 18 21 24 27 30 33 36 38 41 45 52 56 57 56 55 53 52
45 44 44 44 45 45 47 47 48 52 53 45 38 36 35 32 31 31 30 29 30 31 31 30 30 29 28 27 29 31 33 35 36 36 38 42 43 44 47 49 49 44 37 31 28 25 20 14 11 13 17 19 20 22 25 29 29 30 32 32 31 30 28 27 26 24 22 20 18 17 18 19 21 24 27 30 33 35 38 42 47 52 56 58 58 56 55 53
45 45 46 47 45 46 48 48 48 52 55 51 43 38 36 33 31 31 31 29 30 30 31 31 30 29 28 26 27 29 31 33 35 35 36 39 42 42 43 46 48 45 39 32 29 26 21 14 9 10 12 15 19 22 26 29 31 31 31 31 32 32 31 30 31 30 28 27 25 23 22 22 22 24 27 30 34 38 42 47 51 55 58 59 58 57 54 52
47 46 47 47 45 46 49 49 49 51 55 55 49 40 35 34 32 31 31 30 30 30 31 31 31 30 29 26 26 28 30 32 33 33 34 37 40 41 41 43 45 46 42 35 29 26 21 15 9 7 9 12 15 20 24 28 30 31 30 29 29 29 31 32 34 34 33 33 32 29 28 27 27 28 29 30 32 36 41 46 50 53 55 55 54 53 51 49
49 48 47 46 44 45 47 49 50 52 54 56 52 42 36 33 31 30 30 30 30 30 30 31 31 31 30 27 26 26 28 30 32 33 32 33 37 39 40 41 43 44 43 37 31 26 21 16 10 6 7 9 12 17 21 24 28 30 31 30 28 28 30 33 35 38 37 36 35 34 32 31 32 33 33 33 32 34 37 41 45 47 49 49 48 48 47 46
49 48 47 46 46 47 47 49 50 51 53 54 51 43 36 32 30 29 29 29 29 30 30 30 31 31 30 29 27 26 27 28 31 32 31 31 33 36 38 39 40 41 42 40 33 27 22 17 12 8 6 7 10 14 17 20 24 27 29 29 28 28 30 31 32 36 37 35 35 36 34 34 35 36 36 35 34 34 35 38 40 42 44 44 45 45 44 43
47 49 48 47 47 47 47 49 50 51 53 54 52 46 37 31 28 27 28 28 28 30 30 30 31 31 31 30 28 26 26 27 29 31 31 30 30 33 36 38 38 38 40 40 36 29 23 19 15 11 7 4 8 11 14 16 18 22 25 26 26 26 29 29 28 31 33 33 33 33 32 33 35 35 35 35 33 33 34 35 37 39 40 41 41 42 41 41
47 48 49 48 47 47 49 50 51 52 53 54 55 49 36 28 27 26 27 28 28 29 30 31 32 32 32 32 30 28 27 26 28 30 31 30 29 30 32 35 36 36 36 38 37 32 25 20 16 13 10 3 4 9 12 14 15 18 20 22 22 22 25 26 26 26 29 32 32 29 27 29 32 32 32 31 31 30 31 33 35 36 38 39 40 39 39 40
Wind_Direction
318 319 321 322 322 321 321 322 325 328 331 332 332 332 330 329 328 327 327 326 325 323 321 318 315 311 306 300 297 295 292 291 290 290 291 291 291 288 284 279 274 271 268 266 263 258 254 253 251 249 248 247 245 243 240 237 236 234 232 231 229 228 228 228 230 230 231 232 234 235 235 236 238 239 239 239 237 236 235 236 237 237 238 238 239 241 241 242
317 319 321 321 321 320 320 322 324 328 331 332 332 331 329 328 327 327 326 325 324 322 320 317 314 310 305 300 297 295 294 293 293 293 294 295 293 289 285 279 275 272 269 266 265 261 257 255 255 253 251 248 247 245 244 241 238 237 235 233 231 230 230 230 231 232 232 232 233 234 234 234 236 238 239 239 239 237 236 236 237 238 238 239 240 241 241 241
317 318 320 320 320 319 319 321 324 328 331 331 331 330 329 328 327 326 326 325 323 322 319 316 313 309 304 301 298 296 295 294 295 296 296 295 293 289 284 279 275 271 269 267 265 263 261 259 258 258 257 253 250 248 246 244 242 239 237 235 233 232 232 232 232 233 234 233 234 234 233 232 233 235 237 238 239 239 238 237 238 238 238 238 238 239 240 240
316 318 319 319 319 319 319 321 324 328 330 331 331 330 328 327 326 326 325 324 323 321 318 315 311 308 304 301 299 297 296 297 297 297 297 297 294 290 285 281 278 274 270 267 265 265 265 264 263 262 260 258 257 254 250 246 245 242 239 237 235 234 233 233 234 235 235 235 235 235 234 232 232 233 234 236 238 238 239 238 237 237 237 238 238 239 239 240
315 317 318 318 319 318 319 321 324 327 330 331 330 329 328 327 325 325 324 324 322 320 317 313 310 306 303 301 299 297 297 297 298 298 298 298 296 292 287 284 281 278 274 270 268 268 268 268 268 267 264 261 259 258 255 251 248 245 242 239 237 235 235 235 234 235 237 237 236 237 236 233 232 231 231 234 236 237 237 238 237 237 237 238 238 239 240 241
314 316 317 318 318 317 318 321 324 327 329 330 330 329 327 326 325 325 324 323 322 319 315 312 309 305 303 301 298 297 297 297 298 299 299 299 298 295 291 288 284 281 278 275 272 271 270 270 270 270 269 266 262 260 258 256 253 249 246 242 238 236 235 236 236 235 237 238 238 238 237 235 232 230 230 231 233 235 236 237 238 238 238 238 239 240 241 242
314 316 317 317 317 316 318 321 324 327 329 330 329 328 326 325 325 325 324 323 321 318 315 312 309 305 302 300 299 297 297 298 298 299 300 300 299 297 295 292 288 285 282 279 277 274 272 272 271 271 272 271 267 264 260 257 255 252 250 246 242 238 236 235 236 236 236 238 239 239 239 237 234 231 229 229 231 233 235 236 237 238 238 238 239 240 241 241
315 316 317 317 316 316 319 321 324 327 329 330 329 327 326 325 325 325 323 322 320 317 315 312 308 304 301 299 298 297 297 298 299 300 300 300 299 298 296 293 291 288 285 282 279 277 274 273 273 273 274 274 272 268 264 260 256 252 250 248 244 241 238 235 235 236 236 237 239 240 240 239 237 233 229 228 230 231 233 235 236 237 238 238 239 239 240 240
315 316 316 315 315 317 319 321 325 328 329 330 329 327 326 326 325 324 323 322 320 317 314 311 307 303 301 299 298 298 298 299 300 300 301 301 300 299 297 295 292 290 287 284 280 278 275 273 272 272 273 274 274 273 269 264 258 252 249 248 246 242 239 237 235 235 236 236 238 239 240 240 239 236 232 229 229 230 231 233 234 235 237 238 238 239 239 240
315 316 315 314 315 317 319 322 325 328 329 330 328 327 326 326 325 324 323 322 320 317 314 310 307 304 302 300 299 299 299 300 301 301 301 301 301 300 299 297 296 293 290 286 282 278 274 272 271 272 273 273 273 272 270 267 262 255 249 246 246 243 240 238 237 236 236 236 236 238 240 240 240 238 235 232 230 231 231 232 232 233 235 236 237 238 239 239
315 315 314 314 315 317 320 323 326 328 329 330 328 327 326 326 325 324 324 322 320 317 314 310 307 304 302 300 300 300 301 302 302 302 302 302 302 302 302 301 299 296 292 287 282 278 275 274 274 274 274 273 271 269 267 266 263 258 251 245 244 243 240 238 236 236 236 235 236 237 238 240 241 239 237 235 232 231 232 232 232 232 233 234 235 237 237 238
315 314 313 314 316 317 320 324 326 328 330 330 328 326 326 326 325 325 324 323 320 317 314 310 307 305 303 302 301 301 302 302 303 303 304 304 304 305 305 304 302 298 294 289 284 280 279 280 280 279 277 274 271 267 263 262 261 259 254 247 243 242 240 238 236 235 236 235 235 235 236 238 241 240 238 236 234 232 232 233 233 233 232 232 233 235 236 237
314 312 312 313 315 318 321 324 326 328 330 329 328 326 326 326 326 325 325 323 320 317 314 311 308 306 304 303 303 303 303 304 305 305 306 306 307 307 307 306 303 299 295 291 287 285 285 285 284 282 279 276 272 268 264 260 258 257 255 250 245 241 238 238 236 234 235 235 235 235 234 236 239 240 239 237 235 233 233 233 234 234 233 232 232 233 234 235
312 311 311 312 315 318 321 324 327 329 330 329 327 326 326 327 327 326 325 322 319 316 314 311 308 306 306 305 305 305 305 306 307 307 308 309 310 310 309 307 304 301 296 292 290 290 289 288 286 283 280 276 273 269 265 261 257 255 254 251 247 242 238 237 236 234 234 234 236 236 233 233 236 239 239 238 237 235 233 233 234 235 235 234 232 233 234 235
311 310 311 312 315 319 322 325 327 329 330 329 327 326 327 328 327 326 324 322 319 316 313 311 309 307 307 306 306 307 307 308 309 310 311 312 313 312 311 309 306 302 298 295 294 293 292 290 287 283 280 277 273 270 267 263 258 254 252 251 249 245 241 237 235 234 234 234 236 236 233 231 234 236 238 238 238 236 235 234 234 235 235 235 233 233 234 234
310 310 310 312 316 319 322 325 327 330 330 328 327 326 327 328 328 326 324 321 318 315 313 311 310 308 308 307 308 309 310 311 312 313 314 315 315 314 312 310 307 304 300 299 298 297 295 293 290 286 282 279 276 272 269 264 260 255 252 250 249 246 243 240 236 233 233 234 235 236 234 231 232 234 235 237 237 237 236 235 234 235 236 236 234 233 234 235
309 309 310 313 316 320 323 325 328 330 330 327 327 327 328 328 327 326 324 320 316 314 312 311 310 309 309 309 310 311 312 313 314 316 317 318 317 316 315 312 309 306 303 302 301 300 298 296 293 288 284 281 278 274 270 266 263 258 254 251 249 246 243 241 238 234 232 233 234 235 233 230 231 231 233 235 236 236 236 235 235 235 236 236 236 234 234 235
308 308 310 313 317 320 324 326 328 330 329 327 327 327 328 327 327 326 323 320 316 314 313 312 312 311 311 312 313 313 314 316 317 319 320 320 319 319 318 314 312 310 308 308 306 304 302 298 294 289 286 282 278 274 270 266 263 259 255 252 251 248 244 241 239 235 231 231 232 233 232 230 230 230 231 232 234 235 235 235 235 235 235 236 237 235 235 236
308 308 310 314 317 321 324 326 329 330 328 326 327 328 328 327 326 326 323 320 316 314 313 313 312 312 313 314 315 316 317 319 320 322 323 323 323 322 320 318 315 314 313 312 310 308 305 300 295 290 287 283 278 274 269 265 261 259 255 251 250 249 246 242 240 237 233 230 230 231 231 229 228 229 230 231 231 232 234 234 234 234 235 236 237 236 235 235
308 309 311 314 318 322 324 327 329 329 327 326 327 329 328 327 326 325 323 319 316 315 314 313 313 314 315 315 316 318 320 321 323 325 325 326 326 325 323 320 319 318 317 316 314 311 308 304 300 295 290 285 280 276 271 267 262 259 256 251 248 248 248 244 241 239 234 230 229 230 230 228 227 227 228 229 230 230 231 233 234 235 235 235 236 236 235 235
308 309 312 315 319 322 325 327 329 329 326 325 327 329 328 327 327 325 322 319 316 315 315 315 315 315 316 317 319 321 322 323 325 327 328 328 329 327 325 323 323 322 321 319 318 315 312 308 305 300 295 289 283 279 275 270 265 261 257 252 248 247 248 246 242 240 235 230 227 228 228 228 226 224 226 228 229 229 230 231 232 234 234 234 235 236 236 235
308 309 312 316 320 323 325 327 329 328 325 325 328 329 328 327 327 324 321 318 316 316 316 316 316 317 318 320 322 323 324 326 328 329 330 331 331 329 327 327 327 326 325 323 322 320 317 313 308 303 296 291 285 281 277 273 269 265 260 255 250 247 247 247 243 241 237 231 227 226 226 226 224 223 223 226 227 228 229 229 230 232 233 233 234 235 236 236
308 310 313 317 320 323 326 327 328 327 324 325 328 328 328 328 327 325 321 318 316 316 317 316 317 318 320 322 324 325 326 329 331 331 332 333 332 331 331 330 330 329 328 327 326 324 322 318 313 307 300 293 287 281 277 275 272 268 263 258 253 248 247 247 243 241 238 233 228 225 224 224 224 222 222 223 225 226 228 228 228 229 231 231 233 233 234 235
307 310 314 318 321 324 326 327 327 325 323 325 327 328 327 327 327 325 321 318 317 317 317 317 318 320 322 324 325 327 329 331 333 333 335 335 334 334 334 333 332 332 331 331 330 329 327 326 321 314 307 299 290 283 277 275 273 270 266 261 257 251 248 247 243 240 237 233 228 224 222 223 223 222 221 221 222 224 226 227 227 228 229 230 231 232 233 233
307 310 315 318 322 324 326 327 326 324 323 325 327 326 326 326 327 325 321 318 318 317 317 318 320 321 323 325 327 329 331 333 334 335 336 336 335 336 336 335 335 335 335 334 334 333 332 331 328 321 314 306 296 288 280 275 273 271 268 263 259 254 248 246 243 239 236 232 228 224 221 221 221 221 220 219 220 222 225 225 226 227 229 230 231 232 233 234
307 311 315 319 322 324 325 326 325 323 323 325 326 326 325 325 326 324 321 319 318 317 317 318 321 322 324 326 328 331 333 335 336 337 337 337 338 338 338 337 338 338 337 337 337 337 335 333 330 325 319 312 304 295 286 279 274 271 269 265 260 255 249 245 241 238 235 232 229 224 220 219 218 218 218 218 219 220 223 224 224 226 228 229 230 231 233 234
308 312 316 320 323 324 325 325 323 322 323 324 325 325 325 325 324 323 320 318 317 316 317 319 321 324 326 328 330 332 334 336 337 338 338 339 340 340 339 339 340 339 340 340 339 338 336 333 330 327 323 317 309 301 293 284 278 274 270 266 260 254 248 244 240 235 233 231 229 224 221 218 217 216 216 217 217 219 221 222 222 224 226 228 229 230 231 233
309 313 317 321 323 323 324 324 322 322 323 324 325 325 325 325 326 323 319 317 316 316 317 320 323 326 328 329 331 333 336 338 339 339 339 341 341 341 340 341 341 342 342 341 340 339 338 335 332 330 326 320 313 305 298 289 283 278 273 267 260 252 245 241 238 233 229 228 227 223 220 219 217 215 215 216 217 218 220 221 221 222 225 227 228 230 230 231
310 314 318 321 322 322 323 323 322 322 323 324 324 326 326 326 327 325 320 316 316 316 318 321 324 327 329 330 331 334 337 340 341 340 340 342 342 342 341 342 343 344 344 343 341 340 339 336 334 332 329 325 318 310 302 295 289 282 277 270 262 252 245 241 239 233 227 224 223 221 218 217 216 214 214 215 217 218 219 219 219 220 222 224 226 228 229 230
312 315 318 321 321 321 322 322 321 321 324 325 325 326 327 326 326 326 321 316 316 317 318 321 325 327 329 331 332 335 338 341 342 341 340 342 343 342 343 343 345 346 346 344 343 341 338 337 335 333 332 328 322 315 307 301 295 288 281 275 267 256 247 243 241 235 227 223 221 218 216 215 215 214 213 214 216 217 218 218 218 219 221 223 224 226 227 228
313 316 318 319 320 320 321 320 319 320 323 326 326 327 327 326 325 325 321 316 316 316 318 321 325 327 330 331 333 336 339 342 343 341 341 343 344 343 345 346 347 347 347 346 345 343 341 339 336 334 333 331 326 320 313 306 300 294 287 281 273 264 253 244 240 235 228 222 219 216 214 213 213 213 212 212 213 214 215 216 216 218 220 221 223 225 226 227
313 316 317 318 318 319 319 319 318 319 323 326 326 327 328 326 324 324 321 316 315 315 317 321 325 327 330 331 333 337 340 343 344 342 342 344 344 345 347 348 348 347 346 345 344 344 343 343 341 339 338 337 333 327 321 314 306 300 295 287 278 268 257 245 236 231 226 221 218 216 213 212 211 211 210 211 211 212 213 214 214 215 217 219 221 223 224 226
313 315 316 316 316 318 318 318 317 319 322 324 325 327 329 327 324 323 320 315 313 314 316 321 325 328 329 330 333 337 341 343 344 342 343 345 345 346 348 350 350 347 345 344 344 344 345 346 346 344 343 343 339 334 328 322 313 306 302 294 283 269 256 245 234 226 221 217 215 214 213 211 210 210 210 210 211 211 211 212 213 213 214 216 218 220 222 224
312 314 314 314 315 316 317 317 317 319 321 323 324 328 329 327 324 322 319 315 312 312 315 320 325 327 329 331 333 337 341 343 344 343 343 345 346 347 350 351 350 349 348 347 346 346 347 347 348 347 348 348 345 339 333 328 320 311 306 298 285 269 253 243 233 223 218 215 212 210 211 211 210 209 210 211 211 211 210 211 211 212 213 213 215 217 219 221
311 312 313 313 312 314 315 316 316 318 320 321 324 328 329 327 323 321 318 314 312 311 313 319 324 327 329 331 333 337 341 343 344 343 344 346 347 349 351 352 351 350 349 348 348 350 351 353 354 354 354 353 350 346 340 335 329 320 312 303 288 272 254 239 231 222 216 214 212 209 207 208 208 209 210 211 211 211 210 210 209 211 212 211 213 216 218 220
310 310 311 311 310 310 313 315 316 317 319 320 323 327 329 326 322 319 317 314 311 310 312 317 323 327 329 331 333 337 340 343 344 344 345 347 348 350 353 353 351 351 349 349 350 353 356 359 360 1 2 1 358 355 351 345 340 333 325 317 301 280 255 237 228 221 214 213 213 211 206 204 205 208 210 210 211 210 209 209 208 210 210 209 211 214 215 218
308 309 309 308 306 307 312 315 315 317 318 320 323 326 327 326 322 318 316 313 310 309 311 316 322 326 329 331 333 336 340 342 344 345 346 348 349 352 354 354 352 350 348 349 352 356 0 4 5 7 10 9 7 5 1 356 351 345 339 332 317 288 256 235 224 218 212 209 211 211 209 204 202 205 208 209 210 210 210 208 208 209 208 208 210 211 212 215
305 307 307 304 303 304 308 313 315 316 318 319 323 327 327 325 322 319 316 314 310 308 309 313 319 325 328 331 332 335 339 342 344 345 347 349 351 353 355 355 353 350 348 349 353 358 4 9 13 15 17 17 15 13 9 5 2 358 354 349 340 305 252 230 218 213 209 207 207 208 210 207 203 202 204 207 209 209 210 208 207 208 207 207 209 209 209 212
303 305 305 301 299 300 304 310 314 315 317 320 324 327 327 324 322 319 316 314 310 307 307 311 316 323 327 330 332 334 338 342 343 345 348 350 351 354 357 357 354 350 347 348 352 359 6 12 17 21 25 27 26 22 22 21 18 13 9 6 4 352 266 223 212 205 204 205 205 205 207 207 205 202 201 204 206 208 209 207 207 208 206 205 207 208 209 211
300 302 302 297 294 295 299 306 312 314 316 319 324 327 326 323 321 319 316 315 311 307 306 308 313 320 325 328 331 333 336 341 343 345 348 351 352 355 358 358 355 350 346 346 350 357 6 11 19 28 34 38 38 35 35 36 35 32 29 28 27 26 25 209 204 199 198 199 201 203 204 204 205 203 201 200 202 206 206 205 206 207 203 203 206 207 207 209
298 300 298 294 289 290 295 302 309 313 315 318 322 324 326 323 320 319 317 315 313 308 306 306 310 316 322 326 329 331 334 339 343 344 347 351 353 355 358 0 357 351 347 346 349 355 5 14 24 36 43 46 48 46 46 47 46 45 44 43 43 51 69 104 171 187 192 194 195 197 199 200 202 202 200 198 198 201 203 205 206 204 199 201 204 205 206 207
296 296 294 290 286 287 291 297 305 311 313 317 321 323 325 324 320 319 317 314 314 312 307 306 307 312 318 323 327 329 332 337 342 344 346 350 353 355 359 1 359 354 349 347 347 351 2 15 29 43 50 52 53 53 53 53 52 53 52 51 51 56 69 90 115 143 170 182 187 190 191 192 195 197 197 196 194 196 200 204 206 201 197 200 202 202 204 205
289 290 290 287 285 285 288 292 300 308 312 316 321 322 324 325 321 318 317 314 313 313 311 308 307 309 313 319 323 327 330 335 341 343 344 349 352 355 358 1 1 357 351 347 345 346 357 16 34 48 55 56 55 54 53 52 54 56 57 56 57 59 65 79 93 111 136 154 167 178 182 182 184 188 191 193 194 194 197 201 202 198 196 198 199 200 202 204
285 286 285 282 281 282 284 288 295 305 311 314 319 323 323 325 323 318 317 314 311 312 313 311 310 310 311 315 319 324 328 332 338 342 344 347 351 354 357 1 3 0 355 350 345 345 353 13 36 53 59 57 55 53 51 51 55 59 61 61 62 64 67 73 80 92 112 129 143 156 166 171 174 179 184 188 191 193 194 194 193 192 193 195 197 198 200 203
281 281 279 279 279 278 280 285 292 302 308 309 315 323 323 324 324 319 315 314 310 309 311 312 312 312 312 313 316 321 325 329 336 341 342 345 349 354 357 0 4 3 358 352 347 345 349 3 34 60 68 65 61 58 57 56 58 63 66 66 66 67 71 75 79 86 96 108 123 136 147 156 163 169 175 179 183 187 186 183 184 187 190 193 194 196 198 201
276 274 273 276 278 275 277 284 290 297 304 306 310 319 322 322 324 321 316 313 309 307 308 310 311 312 313 313 313 317 321 326 332 338 341 343 347 352 356 359 3 4 1 354 349 347 346 354 30 64 74 71 67 65 66 65 63 65 68 69 69 71 74 79 84 89 94 100 107 119 130 141 151 159 164 168 171 174 174 174 178 183 187 190 193 194 197 199
273 271 271 273 274 272 273 281 287 292 299 303 306 312 316 318 321 321 318 313 309 305 305 307 309 310 312 311 310 313 318 322 328 335 340 342 345 349 354 358 2 5 4 358 351 349 346 349 19 57 68 69 68 68 71 72 69 66 67 69 71 73 76 82 87 89 93 96 100 108 117 126 137 145 152 158 162 166 169 171 175 180 184 188 190 192 195 198
275 272 271 271 274 273 272 277 286 290 295 301 303 305 308 313 316 317 318 315 310 305 302 304 306 308 309 310 308 310 314 319 324 330 337 341 343 346 351 357 1 4 6 2 355 350 346 346 3 43 60 65 69 71 75 77 74 70 67 68 71 75 79 84 88 89 90 93 95 101 109 117 125 132 138 146 153 160 167 170 174 178 182 185 187 190 193 196
274 273 271 272 273 275 274 277 284 289 292 297 300 299 302 309 312 312 315 315 312 305 300 299 302 305 307 308 306 307 311 315 320 326 333 339 342 344 348 354 0 3 6 6 360 352 347 343 347 12 43 57 67 72 76 78 77 76 73 69 70 77 82 86 91 92 90 91 94 97 102 111 118 123 127 133 141 150 159 166 170 174 178 181 184 188 192 195
271 271 271 270 270 270 273 276 282 287 289 292 295 295 299 306 308 308 311 313 311 306 300 297 297 300 304 306 305 304 307 311 316 321 328 335 340 343 345 350 358 3 5 7 5 357 349 341 335 339 10 49 68 74 76 77 78 79 78 75 73 77 81 85 92 94 91 90 94 96 101 108 114 118 122 126 132 140 149 157 164 168 173 177 181 185 189 194
270 269 267 266 267 267 268 272 278 284 287 289 290 291 297 304 304 305 307 308 309 307 302 296 294 295 298 303 304 303 302 307 311 316 323 330 337 342 344 346 354 1 4 7 7 3 353 342 332 324 331 30 73 82 82 80 79 79 78 77 74 76 79 82 87 93 94 94 93 93 98 105 107 109 113 118 125 133 142 150 157 162 167 172 177 182 188 192
269 268 266 264 264 263 263 268 276 283 286 287 287 287 295 304 305 305 304 303 305 306 303 298 293 292 293 297 300 301 299 301 306 311 317 324 331 339 343 344 348 357 3 5 7 7 1 348 336 323 312 331 85 101 97 90 85 82 80 78 76 76 79 83 87 91 94 97 95 94 97 102 104 106 109 114 121 130 139 148 155 161 167 172 176 182 189 194
Height
10793 10790 10787 10785 10782 10778 10775 10772 10768 10765 10760 10756 10751 10746 10740 10736 10732 10728 10725 10722 10719 10716 10713 10711 10709 10708 10706 10704 10703 10702 10701 10700 10700 10699 10698 10698 10697 10696 10695 10694 10693 10693 10692 10692 10692 10692 10692 10692 10692 10692 10692 10693 10693 10695 10697 10699 10701 10704 10709 10717 10725 10727 10726 10726 10726 10725 10726 10728 10726 10730 10744 10756 10762 10765 10769 10773 10777 10782 10788 10792 10796 10799 10802 10805 10807 10809 10813 10815
10789 10787 10784 10781 10778 10775 10772 10768 10765 10761 10756 10752 10747 10741 10736 10731 10727 10723 10720 10717 10714 10711 10708 10706 10704 10703 10701 10700 10698 10697 10696 10696 10696 10695 10694 10693 10692 10690 10689 10688 10688 10687 10687 10687 10686 10686 10686 10686 10686 10686 10686 10687 10687 10688 10689 10692 10694 10696 10701 10708 10714 10716 10716 10718 10718 10718 10719 10721 10719 10719 10733 10748 10754 10756 10760 10766 10771 10775 10781 10786 10790 10793 10795 10799 10801 10803 10807 10809
10786 10783 10780 10778 10775 10772 10768 10765 10761 10757 10752 10747 10742 10736 10731 10726 10722 10718 10715 10712 10709 10706 10703 10701 10698 10697 10696 10695 10694 10693 10692 10691 10691 10690 10689 10688 10687 10685 10684 10683 10683 10682 10682 10681 10681 10680 10680 10680 10680 10680 10680 10680 10680 10681 10682 10685 10686 10689 10694 10700 10704 10707 10708 10708 10709 10710 10711 10713 10711 10710 10721 10737 10743 10746 10753 10759 10763 10768 10775 10779 10782 10785 10787 10789 10793 10796 10799 10801
10783 10780 10777 10774 10771 10768 10765 10761 10757 10753 10748 10743 10738 10732 10727 10722 10718 10714 10710 10707 10705 10702 10699 10696 10694 10692 10691 10690 10689 10689 10688 10687 10686 10685 10684 10683 10682 10680 10679 10678 10677 10677 10677 10676 10675 10674 10674 10673 10673 10673 10673 10673 10674 10674 10675 10677 10678 10680 10685 10689 10693 10697 10699 10698 10700 10701 10701 10703 10704 10702 10709 10724 10732 10739 10747 10750 10755 10762 10767 10768 10770 10773 10776 10780 10785 10788 10791 10794
10780 10777 10774 10771 10768 10765 10762 10758 10754 10750 10745 10740 10734 10728 10722 10718 10713 10710 10706 10703 10700 10698 10694 10692 10690 10688 10686 10686 10685 10684 10683 10682 10681 10680 10679 10678 10676 10676 10675 10674 10672 10672 10671 10670 10669 10668 10667 10666 10665 10665 10664 10665 10666 10666 10667 10669 10670 10672 10675 10679 10682 10686 10689 10689 10690 10692 10692 10693 10695 10694 10698 10711 10723 10731 10738 10742 10748 10753 10753 10753 10756 10762 10768 10773 10778 10781 10785 10788
10778 10775 10772 10769 10765 10762 10758 10755 10751 10746 10742 10736 10730 10724 10718 10713 10709 10705 10702 10699 10696 10693 10690 10688 10686 10684 10682 10681 10681 10680 10679 10678 10676 10675 10674 10673 10672 10671 10670 10669 10668 10666 10666 10665 10663 10662 10661 10659 10658 10657 10656 10656 10657 10657 10658 10661 10662 10664 10666 10667 10671 10675 10679 10679 10680 10683 10683 10682 10684 10686 10688 10698 10711 10722 10730 10735 10740 10741 10741 10744 10748 10754 10761 10766 10771 10775 10780 10784
10775 10772 10769 10766 10763 10759 10755 10752 10748 10743 10738 10732 10726 10720 10714 10709 10705 10701 10698 10695 10692 10689 10686 10684 10682 10680 10678 10677 10676 10675 10674 10673 10672 10671 10670 10668 10667 10666 10665 10663 10662 10661 10660 10659 10657 10656 10654 10653 10651 10650 10649 10648 10648 10648 10649 10651 10653 10656 10657 10657 10660 10664 10667 10669 10670 10672 10675 10675 10674 10676 10679 10686 10698 10711 10722 10728 10730 10730 10732 10737 10741 10746 10751 10758 10765 10770 10774 10778
10772 10769 10766 10763 10760 10756 10752 10748 10744 10740 10734 10728 10722 10715 10710 10705 10701 10697 10694 10691 10688 10685 10682 10680 10678 10676 10675 10673 10672 10671 10670 10669 10667 10666 10665 10664 10662 10661 10660 10658 10657 10655 10654 10653 10652 10650 10648 10646 10645 10643 10641 10639 10639 10639 10640 10642 10642 10645 10647 10647 10650 10653 10655 10658 10659 10661 10664 10667 10665 10666 10670 10674 10683 10698 10714 10721 10721 10722 10724 10728 10733 10738 10743 10751 10758 10761 10765 10769
10768 10765 10763 10759 10756 10753 10749 10745 10741 10736 10730 10724 10717 10711 10705 10700 10696 10693 10690 10687 10684 10681 10678 10676 10673 10672 10671 10670 10668 10667 10666 10664 10663 10662 10660 10659 10657 10656 10655 10653 10651 10649 10648 10646 10645 10643 10641 10639 10637 10636 10634 10632 10631 10630 10630 10631 10630 10633 10635 10637 10640 10642 10644 10646 10648 10650 10652 10657 10657 10658 10661 10663 10669 10683 10703 10714 10713 10714 10715 10718 10724 10730 10735 10743 10747 10751 10756 10761
10765 10762 10759 10756 10753 10749 10745 10741 10737 10732 10726 10720 10712 10706 10700 10696 10692 10688 10685 10683 10680 10677 10674 10672 10670 10668 10667 10665 10664 10663 10661 10660 10659 10657 10655 10653 10652 10650 10649 10646 10644 10642 10641 10639 10637 10635 10633 10631 10629 10627 10626 10623 10623 10621 10620 10619 10618 10620 10623 10627 10629 10630 10633 10635 10638 10640 10640 10645 10648 10650 10652 10652 10655 10670 10691 10703 10705 10706 10707 10710 10715 10720 10728 10734 10737 10742 10748 10753
10762 10759 10755 10752 10749 10745 10741 10737 10732 10727 10722 10715 10708 10701 10696 10692 10688 10684 10681 10678 10676 10674 10671 10668 10666 10664 10663 10661 10660 10659 10657 10656 10654 10653 10650 10648 10646 10644 10642 10640 10637 10634 10632 10630 10628 10626 10624 10622 10619 10617 10615 10612 10612 10611 10609 10608 10606 10607 10610 10615 10617 10618 10623 10625 10628 10629 10629 10633 10637 10641 10644 10643 10645 10661 10680 10687 10693 10698 10699 10702 10706 10711 10719 10724 10727 10732 10739 10745
10758 10755 10752 10748 10745 10741 10737 10733 10728 10723 10717 10710 10703 10697 10692 10688 10684 10680 10677 10674 10672 10669 10667 10664 10662 10661 10659 10658 10656 10655 10653 10652 10650 10648 10646 10643 10640 10638 10635 10633 10630 10626 10624 10621 10618 10616 10614 10612 10609 10606 10603 10600 10598 10597 10597 10597 10595 10595 10598 10603 10605 10606 10611 10614 10616 10617 10617 10622 10626 10627 10632 10638 10642 10653 10665 10669 10678 10688 10691 10694 10697 10702 10710 10715 10719 10724 10731 10738
10755 10751 10748 10745 10742 10738 10733 10728 10724 10719 10712 10705 10699 10693 10689 10685 10680 10676 10673 10670 10668 10665 10663 10660 10658 10657 10656 10654 10652 10651 10649 10647 10646 10643 10641 10638 10635 10632 10629 10625 10622 10619 10615 10612 10609 10607 10604 10601 10598 10594 10590 10587 10585 10583 10583 10583 10584 10584 10584 10590 10592 10593 10599 10601 10602 10606 10609 10613 10612 10610 10623 10637 10638 10638 10646 10654 10663 10674 10681 10685 10688 10692 10697 10706 10714 10718 10723 10730
10751 10748 10745 10742 10738 10734 10729 10725 10720 10715 10708 10701 10695 10690 10685 10681 10677 10673 10670 10667 10664 10661 10659 10657 10655 10653 10652 10650 10649 10647 10645 10643 10641 10638 10635 10632 10629 10626 10622 10618 10614 10610 10607 10604 10601 10598 10594 10590 10587 10582 10578 10574 10571 10570 10569 10569 10572 10572 10571 10575 10576 10579 10586 10586 10588 10595 10600 10603 10598 10597 10618 10633 10627 10625 10632 10641 10650 10660 10670 10676 10678 10682 10686 10695 10707 10712 10717 10723
10747 10744 10741 10738 10735 10730 10726 10721 10716 10711 10704 10697 10691 10686 10682 10678 10674 10670 10666 10663 10660 10658 10655 10653 10652 10650 10649 10647 10645 10643 10641 10638 10636 10633 10630 10627 10623 10620 10616 10611 10606 10602 10598 10595 10592 10587 10583 10578 10574 10569 10565 10561 10558 10556 10555 10554 10557 10558 10558 10560 10561 10567 10573 10572 10577 10584 10589 10592 10587 10590 10613 10623 10614 10615 10622 10627 10638 10648 10658 10665 10669 10673 10676 10684 10698 10706 10712 10715
10744 10741 10738 10735 10731 10726 10722 10717 10712 10706 10700 10693 10687 10682 10678 10675 10671 10667 10663 10659 10656 10654 10651 10650 10648 10647 10645 10643 10641 10639 10636 10634 10631 10628 10624 10621 10617 10613 10609 10604 10599 10594 10590 10586 10582 10577 10571 10565 10561 10555 10551 10547 10544 10543 10541 10540 10541 10543 10545 10545 10547 10554 10558 10560 10565 10571 10575 10579 10580 10587 10605 10609 10602 10606 10611 10615 10626 10635 10645 10654 10660 10664 10667 10674 10687 10699 10704 10706
10740 10737 10734 10731 10727 10723 10718 10713 10708 10702 10696 10689 10684 10679 10675 10671 10667 10663 10659 10656 10653 10650 10648 10646 10645 10644 10642 10640 10638 10635 10632 10629 10626 10623 10619 10615 10611 10607 10602 10597 10592 10586 10581 10577 10572 10566 10560 10553 10547 10541 10537 10535 10531 10530 10527 10526 10528 10529 10531 10532 10533 10539 10544 10546 10549 10555 10562 10568 10573 10582 10591 10594 10592 10595 10599 10605 10614 10623 10633 10643 10650 10655 10659 10666 10677 10690 10697 10699
10736 10733 10730 10727 10723 10719 10714 10708 10703 10697 10691 10685 10680 10676 10672 10668 10664 10660 10656 10652 10649 10647 10645 10643 10642 10640 10638 10636 10634 10631 10629 10626 10622 10618 10615 10610 10604 10600 10594 10589 10584 10579 10573 10567 10561 10555 10548 10542 10535 10529 10525 10523 10519 10518 10516 10516 10517 10516 10519 10520 10520 10525 10530 10531 10533 10539 10549 10557 10565 10571 10577 10583 10583 10583 10589 10595 10604 10613 10623 10632 10639 10645 10652 10659 10668 10679 10688 10694
10732 10729 10726 10723 10719 10715 10710 10704 10699 10693 10687 10681 10677 10673 10669 10664 10660 10656 10653 10650 10647 10644 10642 10641 10639 10637 10635 10633 10630 10627 10624 10621 10617 10614 10609 10604 10597 10592 10587 10581 10576 10571 10564 10558 10551 10543 10537 10530 10525 10519 10515 10513 10510 10508 10507 10507 10507 10506 10508 10510 10510 10513 10515 10518 10521 10527 10536 10547 10555 10561 10567 10572 10572 10575 10580 10586 10594 10604 10613 10621 10629 10636 10645 10653 10660 10669 10679 10687
10728 10725 10722 10719 10715 10711 10706 10700 10694 10689 10683 10677 10673 10670 10665 10661 10657 10653 10650 10647 10644 10642 10640 10638 10636 10634 10632 10630 10627 10624 10620 10616 10612 10608 10603 10598 10591 10584 10579 10574 10568 10563 10556 10549 10541 10534 10527 10520 10515 10511 10506 10504 10502 10500 10499 10499 10499 10499 10499 10500 10502 10503 10504 10508 10512 10516 10525 10537 10545 10551 10557 10561 10564 10569 10572 10575 10585 10596 10604 10613 10622 10629 10638 10647 10652 10659 10669 10678
10724 10721 10718 10715 10711 10707 10702 10696 10691 10685 10679 10674 10670 10667 10662 10659 10655 10651 10648 10644 10641 10639 10637 10635 10633 10631 10629 10627 10623 10620 10617 10613 10608 10603 10598 10592 10585 10578 10572 10567 10561 10554 10547 10539 10532 10525 10518 10512 10508 10504 10499 10496 10494 10493 10492 10492 10492 10491 10491 10492 10494 10495 10496 10498 10502 10506 10513 10525 10534 10540 10546 10553 10558 10561 10562 10567 10578 10590 10598 10607 10615 10621 10630 10639 10644 10650 10660 10669
10720 10717 10715 10712 10707 10703 10698 10692 10687 10681 10675 10671 10667 10664 10660 10656 10653 10649 10645 10642 10639 10636 10634 10632 10630 10628 10626 10623 10620 10616 10612 10609 10604 10599 10592 10586 10579 10572 10566 10560 10554 10546 10538 10530 10523 10517 10511 10505 10501 10498 10494 10490 10489 10487 10486 10485 10485 10485 10485 10485 10486 10488 10488 10490 10495 10499 10504 10515 10523 10528 10536 10544 10549 10551 10555 10562 10574 10584 10589 10598 10608 10613 10622 10630 10636 10644 10652 10661
10716 10713 10711 10708 10704 10699 10694 10688 10683 10677 10672 10667 10664 10661 10657 10654 10651 10647 10643 10640 10637 10634 10632 10630 10628 10625 10623 10620 10617 10613 10608 10604 10599 10593 10587 10580 10573 10567 10560 10553 10546 10539 10531 10523 10516 10510 10505 10500 10495 10492 10489 10486 10484 10482 10481 10479 10479 10479 10479 10479 10480 10481 10481 10483 10488 10492 10496 10505 10511 10517 10527 10534 10539 10544 10551 10558 10568 10575 10579 10590 10600 10605 10614 10622 10628 10636 10644 10652
10713 10710 10707 10704 10700 10695 10690 10685 10680 10674 10669 10665 10661 10658 10655 10652 10649 10645 10641 10638 10635 10632 10630 10628 10626 10623 10620 10617 10613 10610 10605 10600 10595 10588 10582 10575 10568 10562 10555 10547 10539 10531 10524 10516 10510 10504 10499 10495 10490 10487 10484 10482 10479 10478 10477 10475 10474 10473 10473 10473 10474 10475 10475 10477 10482 10485 10489 10495 10500 10508 10517 10525 10533 10541 10547 10552 10558 10564 10571 10583 10593 10599 10607 10614 10621 10630 10636 10644
10709 10706 10704 10701 10696 10692 10687 10681 10676 10671 10666 10662 10659 10656 10653 10649 10646 10643 10639 10636 10633 10630 10628 10625 10623 10620 10617 10614 10611 10606 10602 10597 10591 10585 10578 10571 10565 10558 10551 10543 10534 10525 10517 10511 10504 10498 10493 10489 10486 10482 10480 10478 10476 10474 10473 10471 10470 10469 10468 10468 10468 10469 10470 10472 10475 10478 10482 10486 10491 10499 10509 10520 10528 10535 10540 10543 10549 10557 10565 10576 10586 10594 10602 10609 10618 10626 10632 10639
10706 10703 10701 10697 10693 10688 10683 10678 10673 10668 10663 10659 10656 10653 10650 10647 10644 10641 10637 10634 10631 10628 10626 10623 10621 10618 10615 10611 10607 10603 10599 10594 10588 10582 10575 10568 10562 10555 10547 10538 10530 10521 10513 10506 10500 10495 10490 10486 10482 10479 10476 10474 10472 10470 10469 10468 10466 10465 10464 10464 10464 10464 10465 10467 10470 10473 10476 10481 10485 10493 10504 10511 10517 10526 10532 10536 10544 10552 10558 10568 10580 10589 10598 10606 10614 10621 10628 10635
10703 10700 10697 10694 10689 10685 10680 10675 10670 10665 10660 10657 10654 10651 10648 10644 10641 10639 10635 10631 10628 10626 10624 10622 10619 10616 10613 10609 10605 10600 10596 10591 10585 10579 10572 10565 10558 10551 10543 10535 10526 10518 10510 10503 10497 10492 10488 10484 10480 10477 10474 10471 10469 10467 10466 10465 10463 10462 10461 10460 10460 10461 10461 10463 10465 10468 10472 10477 10482 10490 10497 10501 10509 10521 10526 10530 10538 10544 10550 10562 10575 10585 10595 10603 10609 10616 10625 10632
10699 10696 10692 10690 10686 10681 10677 10673 10667 10662 10658 10654 10651 10648 10645 10642 10639 10636 10633 10630 10627 10624 10622 10619 10617 10613 10610 10606 10602 10598 10593 10588 10582 10575 10569 10562 10555 10548 10540 10532 10524 10516 10508 10502 10496 10491 10486 10482 10478 10475 10472 10470 10467 10465 10463 10462 10461 10459 10458 10457 10457 10457 10458 10459 10461 10464 10468 10472 10477 10484 10490 10497 10508 10516 10518 10523 10531 10537 10547 10560 10571 10582 10590 10597 10605 10613 10621 10629
10695 10692 10688 10686 10683 10678 10674 10670 10665 10660 10656 10652 10649 10645 10642 10639 10637 10633 10630 10628 10625 10622 10619 10617 10614 10611 10607 10604 10599 10595 10591 10586 10580 10573 10566 10560 10553 10545 10538 10530 10523 10515 10507 10501 10495 10490 10485 10480 10476 10473 10470 10468 10465 10463 10461 10460 10458 10457 10455 10454 10454 10454 10455 10456 10458 10461 10464 10467 10472 10478 10485 10493 10502 10508 10513 10519 10527 10537 10547 10557 10567 10577 10584 10592 10601 10609 10618 10625
10691 10688 10684 10682 10679 10675 10671 10667 10662 10658 10654 10650 10647 10643 10640 10637 10634 10631 10627 10625 10622 10620 10617 10615 10612 10609 10606 10602 10598 10593 10589 10584 10578 10572 10565 10558 10551 10544 10536 10528 10520 10513 10507 10501 10495 10489 10484 10479 10475 10472 10469 10466 10464 10462 10460 10458 10456 10455 10454 10453 10452 10452 10452 10453 10455 10458 10461 10465 10469 10474 10480 10486 10493 10503 10512 10520 10529 10538 10545 10553 10562 10571 10578 10587 10597 10605 10614 10621
10687 10684 10681 10679 10676 10672 10669 10665 10660 10656 10652 10648 10645 10642 10638 10635 10632 10629 10626 10623 10620 10618 10616 10613 10610 10607 10603 10600 10597 10592 10588 10582 10577 10570 10564 10557 10549 10542 10534 10525 10515 10508 10503 10498 10493 10489 10484 10479 10475 10471 10468 10465 10463 10461 10459 10457 10455 10454 10453 10451 10451 10451 10451 10452 10453 10456 10459 10463 10467 10471 10476 10483 10490 10500 10509 10517 10524 10531 10538 10549 10559 10568 10576 10585 10594 10602 10610 10617
10683 10680 10677 10675 10673 10670 10666 10662 10658 10654 10650 10646 10643 10640 10636 10633 10629 10627 10624 10621 10619 10616 10614 10612 10609 10605 10602 10598 10595 10591 10587 10582 10576 10569 10563 10556 10548 10540 10533 10524 10516 10509 10502 10496 10491 10487 10483 10479 10475 10471 10468 10465 10463 10460 10458 10456 10455 10453 10452 10451 10450 10450 10450 10451 10452 10454 10458 10461 10465 10469 10474 10479 10486 10493 10502 10509 10515 10523 10533 10544 10553 10562 10571 10580 10589 10598 10605 10611
10679 10677 10674 10672 10670 10667 10664 10660 10655 10651 10648 10644 10641 10638 10635 10631 10628 10624 10622 10620 10617 10615 10613 10610 10607 10604 10601 10597 10594 10590 10586 10581 10575 10568 10562 10555 10548 10540 10533 10525 10519 10512 10506 10500 10494 10487 10482 10478 10475 10471 10468 10466 10463 10460 10458 10456 10455 10453 10452 10451 10450 10450 10450 10450 10451 10453 10456 10459 10463 10467 10471 10476 10482 10489 10496 10502 10509 10518 10527 10536 10546 10555 10564 10574 10584 10592 10599 10606
10675 10673 10671 10669 10667 10664 10661 10657 10653 10649 10646 10642 10639 10636 10633 10630 10626 10623 10620 10618 10616 10613 10611 10609 10606 10603 10600 10596 10593 10589 10585 10580 10574 10568 10562 10555 10547 10540 10533 10525 10519 10513 10508 10502 10497 10492 10486 10481 10477 10473 10470 10467 10464 10461 10459 10457 10455 10453 10452 10451 10450 10450 10450 10450 10451 10453 10455 10458 10461 10465 10469 10475 10480 10486 10492 10498 10505 10514 10523 10533 10543 10552 10561 10571 10579 10586 10594 10602
10671 10669 10668 10666 10664 10661 10658 10654 10650 10647 10644 10640 10637 10634 10631 10628 10624 10621 10619 10616 10614 10612 10610 10608 10605 10602 10598 10595 10592 10588 10584 10579 10574 10568 10561 10555 10547 10540 10532 10525 10519 10514 10508 10503 10499 10494 10489 10484 10479 10475 10471 10468 10465 10462 10460 10458 10456 10454 10453 10451 10451 10451 10450 10451 10451 10453 10455 10458 10460 10463 10467 10472 10478 10483 10489 10495 10503 10511 10521 10531 10541 10549 10558 10568 10576 10583 10591 10598
10666 10665 10664 10662 10660 10658 10655 10651 10648 10644 10641 10638 10634 10631 10629 10626 10623 10619 10617 10615 10612 10610 10608 10606 10603 10600 10597 10594 10590 10587 10583 10579 10573 10568 10562 10555 10548 10540 10533 10526 10520 10515 10510 10505 10500 10495 10490 10486 10482 10477 10473 10469 10466 10464 10461 10459 10457 10455 10454 10453 10452 10451 10451 10451 10452 10453 10456 10458 10460 10463 10466 10470 10476 10481 10487 10493 10500 10509 10518 10528 10538 10546 10555 10566 10574 10581 10589 10596
10662 10661 10660 10659 10657 10655 10652 10649 10645 10642 10639 10636 10632 10629 10627 10624 10621 10618 10615 10613 10611 10609 10607 10605 10602 10599 10596 10593 10590 10586 10583 10578 10573 10567 10562 10556 10549 10542 10534 10528 10522 10517 10512 10507 10503 10498 10494 10489 10484 10480 10476 10472 10468 10466 10463 10461 10459 10457 10455 10454 10453 10453 10453 10452 10453 10454 10456 10458 10460 10463 10466 10469 10473 10478 10485 10491 10499 10507 10515 10525 10535 10544 10554 10564 10570 10578 10586 10593
10657 10657 10656 10654 10652 10651 10649 10646 10643 10640 10636 10633 10630 10627 10624 10621 10618 10616 10614 10611 10610 10607 10605 10604 10601 10598 10595 10592 10589 10586 10582 10578 10573 10567 10562 10557 10550 10543 10536 10529 10523 10519 10514 10510 10505 10501 10496 10492 10488 10483 10479 10476 10472 10469 10466 10463 10460 10458 10457 10456 10455 10454 10454 10454 10454 10454 10456 10458 10460 10462 10466 10469 10473 10477 10483 10490 10497 10505 10513 10524 10534 10542 10552 10561 10568 10576 10584 10591
10653 10653 10652 10650 10648 10647 10646 10643 10640 10637 10634 10630 10627 10624 10622 10619 10616 10614 10612 10610 10608 10606 10604 10602 10600 10597 10594 10591 10589 10586 10582 10578 10573 10568 10563 10558 10551 10544 10537 10531 10525 10521 10516 10512 10508 10504 10500 10496 10491 10487 10483 10479 10476 10473 10469 10466 10463 10461 10459 10457 10456 10455 10455 10455 10455 10455 10456 10458 10460 10462 10465 10469 10473 10477 10482 10488 10496 10504 10513 10524 10532 10538 10549 10560 10567 10575 10583 10590
10648 10649 10648 10645 10644 10643 10641 10640 10637 10634 10631 10628 10625 10622 10620 10617 10615 10612 10610 10608 10606 10604 10602 10601 10599 10596 10594 10591 10588 10585 10582 10578 10574 10568 10564 10559 10553 10546 10540 10533 10528 10523 10519 10515 10511 10507 10503 10499 10494 10490 10487 10483 10480 10476 10473 10469 10466 10463 10461 10459 10458 10457 10457 10457 10456 10457 10457 10458 10460 10463 10465 10469 10473 10477 10482 10488 10495 10503 10512 10521 10527 10535 10550 10560 10567 10574 10581 10587
10644 10644 10644 10642 10640 10639 10637 10636 10634 10632 10629 10625 10623 10620 10618 10616 10613 10610 10609 10606 10605 10603 10601 10599 10597 10595 10593 10590 10587 10584 10581 10578 10574 10569 10564 10560 10554 10548 10542 10536 10530 10526 10522 10518 10514 10510 10506 10502 10498 10494 10491 10487 10484 10481 10477 10473 10470 10467 10464 10462 10461 10459 10459 10458 10458 10458 10459 10460 10461 10463 10466 10470 10474 10478 10482 10488 10494 10502 10511 10517 10523 10535 10549 10558 10564 10572 10579 10586
10639 10639 10639 10638 10636 10634 10633 10632 10630 10629 10626 10623 10621 10618 10616 10614 10611 10608 10607 10605 10603 10601 10599 10597 10596 10594 10592 10589 10587 10584 10581 10578 10574 10569 10565 10560 10556 10550 10544 10538 10533 10528 10524 10521 10517 10513 10509 10505 10501 10498 10494 10491 10488 10485 10481 10478 10474 10471 10468 10466 10464 10462 10461 10460 10460 10460 10461 10462 10463 10465 10467 10470 10474 10479 10483 10488 10494 10500 10507 10514 10522 10534 10546 10554 10562 10570 10578 10585
10633 10634 10634 10633 10632 10631 10630 10628 10626 10625 10624 10621 10618 10616 10614 10612 10609 10607 10605 10603 10601 10600 10598 10596 10594 10593 10591 10588 10586 10583 10580 10577 10574 10570 10565 10561 10557 10552 10546 10540 10535 10531 10527 10524 10520 10517 10513 10509 10505 10501 10498 10495 10492 10489 10486 10483 10479 10475 10472 10470 10468 10466 10465 10463 10463 10463 10463 10464 10466 10467 10469 10472 10476 10480 10484 10489 10494 10499 10506 10513 10523 10535 10545 10552 10561 10569 10577 10583
10628 10628 10629 10629 10628 10628 10627 10624 10622 10621 10621 10619 10616 10614 10612 10610 10607 10605 10603 10601 10600 10598 10596 10594 10592 10591 10589 10588 10585 10583 10580 10577 10574 10570 10566 10562 10558 10554 10548 10543 10537 10533 10529 10526 10523 10520 10516 10513 10509 10505 10502 10499 10497 10494 10491 10488 10484 10481 10478 10475 10473 10471 10469 10468 10467 10466 10466 10467 10468 10470 10471 10474 10477 10481 10486 10491 10496 10501 10508 10516 10526 10536 10544 10552 10561 10569 10576 10582
10622 10623 10624 10623 10623 10624 10623 10620 10618 10617 10616 10616 10614 10612 10609 10607 10605 10603 10601 10599 10598 10596 10595 10593 10591 10589 10588 10586 10584 10582 10580 10577 10574 10571 10567 10563 10559 10555 10550 10545 10539 10535 10531 10528 10526 10523 10520 10516 10513 10509 10506 10504 10501 10498 10495 10492 10490 10486 10483 10481 10479 10477 10475 10473 10472 10471 10470 10471 10471 10472 10474 10476 10479 10483 10487 10492 10498 10505 10511 10519 10527 10536 10544 10552 10560 10568 10574 10581
10617 10618 10619 10618 10619 10619 10618 10617 10615 10613 10612 10612 10611 10609 10607 10605 10603 10601 10599 10597 10596 10594 10593 10592 10590 10588 10587 10585 10583 10581 10579 10577 10574 10571 10568 10564 10560 10557 10552 10548 10542 10537 10533 10530 10528 10525 10523 10520 10516 10513 10510 10508 10505 10502 10499 10497 10495 10492 10489 10487 10485 10483 10481 10479 10477 10476 10475 10475 10476 10477 10478 10480 10482 10485 10489 10494 10499 10505 10512 10519 10527 10534 10542 10550 10558 10565 10572 10579
10611 10612 10613 10613 10615 10615 10614 10613 10612 10610 10608 10607 10608 10607 10605 10603 10601 10599 10597 10595 10593 10592 10591 10590 10588 10587 10585 10584 10582 10581 10579 10576 10574 10572 10568 10565 10561 10558 10554 10550 10545 10539 10535 10532 10530 10527 10525 10522 10519 10517 10514 10511 10508 10506 10504 10502 10500 10498 10495 10494 10492 10489 10487 10485 10483 10482 10481 10481 10482 10482 10483 10485 10487 10489 10493 10497 10501 10506 10512 10518 10524 10531 10539 10547 10555 10563 10571 10578
10605 10606 10607 10608 10610 10611 10609 10609 10608 10606 10604 10603 10603 10604 10602 10600 10598 10597 10595 10593 10591 10590 10589 10588 10587 10585 10584 10583 10581 10580 10578 10576 10574 10572 10569 10566 10562 10559 10556 10552 10547 10542 10537 10534 10532 10529 10527 10525 10522 10520 10517 10515 10512 10510 10508 10506 10504 10502 10501 10499 10498 10496 10494 10492 10489 10488 10487 10487 10487 10488 10489 10490 10492 10495 10498 10502 10507 10511 10516 10521 10527 10533 10541 10549 10557 10565 10572 10579
10599 10600 10601 10603 10605 10606 10605 10604 10603 10602 10601 10599 10599 10600 10599 10596 10595 10594 10592 10591 10589 10588 10587 10586 10585 10584 10582 10581 10580 10578 10577 10575 10573 10571 10569 10566 10563 10560 10557 10554 10550 10545 10540 10536 10534 10532 10529 10527 10525 10523 10520 10518 10516 10514 10512 10511 10508 10507 10505 10504 10504 10502 10500 10498 10496 10494 10494 10494 10494 10494 10496 10497 10498 10500 10503 10507 10512 10517 10522 10527 10533 10539 10546 10553 10561 10568 10574 10579
10594 10595 10597 10599 10600 10601 10601 10600 10599 10598 10597 10596 10595 10595 10595 10593 10591 10590 10589 10588 10587 10585 10584 10584 10583 10582 10581 10579 10578 10577 10576 10575 10573 10571 10569 10567 10564 10561 10558 10555 10552 10548 10543 10539 10536 10534 10532 10530 10528 10525 10523 10521 10520 10518 10516 10515 10513 10511 10509 10509 10509 10508 10506 10504 10503 10501 10500 10501 10500 10501 10502 10503 10505 10506 10509 10513 10517 10522 10527 10532 10538 10544 10550 10556 10562 10568 10574 10578
10588 10589 10592 10594 10595 10596 10596 10595 10594 10594 10593 10592 10591 10591 10591 10590 10588 10587 10586 10585 10584 10583 10582 10581 10581 10580 10579 10578 10577 10576 10575 10574 10572 10570 10569 10567 10565 10562 10559 10556 10553 10550 10546 10542 10538 10535 10534 10532 10530 10528 10526 10524 10523 10521 10519 10518 10517 10515 10513 10513 10513 10513 10511 10510 10509 10508 10507 10507 10507 10507 10508 10509 10511 10513 10516 10520 10524 10528 10532 10537 10542 10547 10553 10558 10564 10569 10574 10578
10582 10584 10586 10588 10590 10590 10590 10589 10589 10589 10589 10588 10587 10586 10587 10587 10584 10584 10583 10582 10581 10580 10579 10578 10578 10577 10577 10576 10575 10574 10573 10572 10571 10569 10568 10567 10565 10563 10560 10557 10554 10552 10548 10544 10541 10538 10535 10534 10532 10531 10529 10527 10526 10524 10523 10522 10521 10519 10518 10517 10517 10517 10516 10515 10515 10515 10514 10513 10513 10515 10516 10516 10517 10520 10524 10527 10530 10533 10537 10542 10546 10551 10555 10560 10565 10569 10573 10576